When you browse on this site, cookies collect data to enhance your experience and personalize the content and advertising you see.
Visit our Privacy Policy to learn more. By continuing to use the site, you agree to this use of cookies and data.
EN

Hourly Weather Heidelberg

Today, 10 August, Monday

Time Temperature Precipitation Wind Pressure Humidity
00:00 +24°C° 0 mm 2 mps 733 mmHg 64%
01:00 +23°C° 0 mm 2 mps 733 mmHg 68%
02:00 +23°C° 0.1 mm 2 mps 733 mmHg 71%
03:00 +21°C° 0.1 mm 2 mps 733 mmHg 73%
04:00 +22°C° 0.1 mm 1 mps 732 mmHg 76%
05:00 +22°C° 0.1 mm 1 mps 732 mmHg 74%
06:00 +23°C° 0.1 mm 1 mps 732 mmHg 73%
07:00 +24°C° 0.1 mm 1 mps 732 mmHg 71%
08:00 +26°C° 0 mm 1 mps 733 mmHg 62%
09:00 +28°C° 0 mm 1 mps 733 mmHg 53%
10:00 +31°C° 0 mm 1 mps 733 mmHg 44%
11:00 +32°C° 0 mm 1 mps 733 mmHg 40%
12:00 +33°C° 0 mm 1 mps 733 mmHg 36%
13:00 +35°C° 0 mm 1 mps 733 mmHg 32%
14:00 +35°C° 0 mm 2 mps 733 mmHg 33%
15:00 +35°C° 0 mm 2 mps 733 mmHg 33%
16:00 +35°C° 0 mm 2 mps 732 mmHg 34%
17:00 +32°C° 0.1 mm 2 mps 732 mmHg 41%
18:00 +30°C° 0.1 mm 2 mps 732 mmHg 47%
19:00 +29°C° 0.1 mm 2 mps 732 mmHg 54%
20:00 +27°C° 0.7 mm 2 mps 732 mmHg 61%
21:00 +26°C° 0.7 mm 3 mps 733 mmHg 68%
22:00 +24°C° 0.7 mm 3 mps 733 mmHg 75%
23:00 +23°C° 0.2 mm 2 mps 733 mmHg 77%

Tomorrow, 11 August, Tuesday

Time Temperature Precipitation Wind Pressure Humidity
00:00 +23°C° 0.2 mm 2 mps 733 mmHg 79%
01:00 +23°C° 0.2 mm 2 mps 733 mmHg 81%
02:00 +21°C° 0.1 mm 2 mps 733 mmHg 82%
03:00 +21°C° 0.1 mm 2 mps 733 mmHg 83%
04:00 +21°C° 0.1 mm 2 mps 733 mmHg 84%
05:00 +21°C° 0.1 mm 2 mps 733 mmHg 83%
06:00 +21°C° 0.1 mm 2 mps 733 mmHg 82%
07:00 +23°C° 0.1 mm 2 mps 733 mmHg 81%
08:00 +24°C° 0 mm 2 mps 733 mmHg 73%
09:00 +26°C° 0 mm 1 mps 733 mmHg 66%
10:00 +28°C° 0 mm 1 mps 734 mmHg 58%
11:00 +29°C° 0.1 mm 2 mps 734 mmHg 54%
12:00 +31°C° 0.1 mm 2 mps 734 mmHg 49%
13:00 +32°C° 0.1 mm 2 mps 734 mmHg 44%
14:00 +32°C° 0 mm 2 mps 733 mmHg 43%
15:00 +33°C° 0 mm 3 mps 733 mmHg 42%
16:00 +33°C° 0 mm 3 mps 733 mmHg 41%
17:00 +31°C° 0.3 mm 3 mps 733 mmHg 47%
18:00 +29°C° 0.3 mm 3 mps 733 mmHg 53%
19:00 +27°C° 0.3 mm 3 mps 733 mmHg 59%
20:00 +26°C° 0.4 mm 3 mps 733 mmHg 62%
21:00 +25°C° 0.4 mm 2 mps 733 mmHg 66%
22:00 +24°C° 0.4 mm 2 mps 733 mmHg 70%
23:00 +24°C° 0 mm 2 mps 733 mmHg 72%

Day after tomorrow, 12 August, Wednesday

Time Temperature Precipitation Wind Pressure Humidity
00:00 +23°C° 0 mm 2 mps 733 mmHg 73%
01:00 +23°C° 0 mm 2 mps 733 mmHg 75%
02:00 +21°C° 0 mm 2 mps 733 mmHg 77%
03:00 +21°C° 0 mm 2 mps 733 mmHg 79%
04:00 +21°C° 0 mm 2 mps 733 mmHg 80%
05:00 +21°C° 0 mm 2 mps 733 mmHg 79%
06:00 +21°C° 0 mm 3 mps 733 mmHg 77%
07:00 +22°C° 0 mm 3 mps 733 mmHg 76%
08:00 +25°C° 0 mm 3 mps 733 mmHg 69%
09:00 +26°C° 0 mm 3 mps 733 mmHg 62%
10:00 +28°C° 0 mm 4 mps 734 mmHg 54%
11:00 +30°C° 0 mm 4 mps 733 mmHg 50%
12:00 +32°C° 0 mm 4 mps 733 mmHg 46%
13:00 +33°C° 0 mm 4 mps 733 mmHg 42%
14:00 +33°C° 0 mm 4 mps 733 mmHg 41%
15:00 +33°C° 0 mm 4 mps 733 mmHg 41%
16:00 +34°C° 0 mm 4 mps 733 mmHg 41%
17:00 +32°C° 0 mm 4 mps 733 mmHg 46%
18:00 +30°C° 0 mm 4 mps 732 mmHg 51%
19:00 +29°C° 0 mm 4 mps 732 mmHg 55%
20:00 +27°C° 0.1 mm 3 mps 732 mmHg 60%
21:00 +26°C° 0.1 mm 3 mps 732 mmHg 64%
22:00 +25°C° 0.1 mm 3 mps 732 mmHg 68%
23:00 +24°C° 0 mm 3 mps 732 mmHg 69%

13 August, Thursday

Time Temperature Precipitation Wind Pressure Humidity
00:00 +24°C° 0 mm 3 mps 732 mmHg 70%
01:00 +22°C° 0 mm 3 mps 732 mmHg 71%
02:00 +22°C° 0 mm 3 mps 732 mmHg 72%
03:00 +22°C° 0 mm 3 mps 732 mmHg 72%
04:00 +21°C° 0 mm 2 mps 732 mmHg 73%
05:00 +23°C° 0.5 mm 2 mps 732 mmHg 74%
06:00 +23°C° 0.5 mm 2 mps 732 mmHg 76%
07:00 +23°C° 0.5 mm 2 mps 732 mmHg 77%
08:00 +24°C° 0 mm 2 mps 732 mmHg 72%
09:00 +26°C° 0 mm 1 mps 733 mmHg 66%
10:00 +27°C° 0 mm 1 mps 733 mmHg 60%
11:00 +29°C° 0 mm 1 mps 733 mmHg 53%
12:00 +31°C° 0 mm 2 mps 733 mmHg 46%
13:00 +34°C° 0 mm 2 mps 733 mmHg 40%
14:00 +34°C° 0 mm 2 mps 733 mmHg 37%
15:00 +34°C° 0 mm 3 mps 732 mmHg 35%
16:00 +35°C° 0 mm 4 mps 732 mmHg 33%
17:00 +33°C° 0 mm 3 mps 732 mmHg 38%
18:00 +31°C° 0 mm 2 mps 732 mmHg 43%
19:00 +29°C° 0 mm 1 mps 732 mmHg 48%
20:00 +28°C° 0.2 mm 1 mps 732 mmHg 52%
21:00 +26°C° 0.2 mm 1 mps 732 mmHg 56%
22:00 +25°C° 0.2 mm 1 mps 732 mmHg 60%
23:00 +24°C° 0.5 mm 2 mps 732 mmHg 67%

14 August, Friday

Time Temperature Precipitation Wind Pressure Humidity
00:00 +21°C° 0.5 mm 2 mps 732 mmHg 74%
01:00 +20°C° 0.5 mm 3 mps 732 mmHg 80%
02:00 +20°C° 0.3 mm 3 mps 732 mmHg 82%
03:00 +20°C° 0.3 mm 3 mps 732 mmHg 84%
04:00 +20°C° 0.3 mm 2 mps 732 mmHg 86%
05:00 +20°C° 0.2 mm 2 mps 733 mmHg 86%
06:00 +20°C° 0.2 mm 2 mps 733 mmHg 85%
07:00 +20°C° 0.2 mm 2 mps 733 mmHg 84%
08:00 +21°C° 0.1 mm 2 mps 733 mmHg 82%
09:00 +21°C° 0.1 mm 3 mps 733 mmHg 79%
10:00 +22°C° 0.1 mm 3 mps 734 mmHg 76%
11:00 +24°C° 0.3 mm 3 mps 734 mmHg 71%
12:00 +25°C° 0.3 mm 3 mps 733 mmHg 66%
13:00 +26°C° 0.3 mm 3 mps 733 mmHg 61%
14:00 +26°C° 0.1 mm 3 mps 733 mmHg 58%
15:00 +27°C° 0.1 mm 3 mps 733 mmHg 56%
16:00 +27°C° 0.1 mm 3 mps 733 mmHg 53%
17:00 +26°C° 0.2 mm 2 mps 733 mmHg 57%
18:00 +25°C° 0.2 mm 2 mps 733 mmHg 61%
19:00 +25°C° 0.2 mm 1 mps 733 mmHg 65%
20:00 +24°C° 0 mm 1 mps 733 mmHg 67%
21:00 +23°C° 0 mm 1 mps 733 mmHg 69%
22:00 +22°C° 0 mm 1 mps 734 mmHg 71%
23:00 +21°C° 0 mm 1 mps 734 mmHg 73%

15 August, Saturday

Time Temperature Precipitation Wind Pressure Humidity
00:00 +21°C° 0 mm 1 mps 734 mmHg 75%
01:00 +20°C° 0 mm 1 mps 734 mmHg 77%
02:00 +20°C° 0 mm 1 mps 733 mmHg 79%
03:00 +20°C° 0 mm 1 mps 733 mmHg 80%
04:00 +19°C° 0 mm 1 mps 733 mmHg 82%
05:00 +20°C° 0 mm 1 mps 733 mmHg 80%
06:00 +20°C° 0 mm 1 mps 733 mmHg 78%
07:00 +21°C° 0 mm 1 mps 734 mmHg 77%
08:00 +23°C° 0 mm 1 mps 734 mmHg 69%
09:00 +25°C° 0 mm 1 mps 734 mmHg 61%
10:00 +27°C° 0 mm 1 mps 734 mmHg 53%
11:00 +28°C° 0 mm 1 mps 734 mmHg 48%
12:00 +29°C° 0 mm 1 mps 734 mmHg 43%
13:00 +30°C° 0 mm 1 mps 734 mmHg 38%
14:00 +30°C° 0 mm 1 mps 733 mmHg 37%
15:00 +30°C° 0 mm 1 mps 733 mmHg 36%
16:00 +30°C° 0 mm 1 mps 733 mmHg 35%
17:00 +29°C° 0 mm 1 mps 733 mmHg 39%
18:00 +28°C° 0 mm 1 mps 733 mmHg 44%
19:00 +26°C° 0 mm 1 mps 732 mmHg 48%
20:00 +25°C° 0 mm 1 mps 733 mmHg 51%
21:00 +24°C° 0 mm 1 mps 733 mmHg 54%
22:00 +23°C° 0 mm 1 mps 733 mmHg 56%
23:00 +22°C° 0 mm 1 mps 733 mmHg 59%
Show more